Simultaneous Nadir Overpasses (SNOs) Predictions

Prediction of SNOs between GOES-15 and METOP-A Satellite Orbit:

Table of predicted SNOs for the next 14.0 days since TLE Epoch: 7/7/2012
<
Index Date Time (GOES-15) GOES-15 Lat,Lon METOP-A Lat,Lon Distance(km) Time Diff (sec)
1 07/08/2012 18:29:20 -0.04,-135.36 -0.11,-135.09 31.35 80
2 07/10/2012 06:50:58 -0.00,-135.35 -0.97,-139.67 491.38 80
3 07/11/2012 06:27:39 0.02,-135.36 0.18,-134.68 78.49 80
4 07/12/2012 18:49:09 0.02,-135.40 0.86,-139.23 435.83 80
5 07/13/2012 18:25:50 -0.01,-135.41 -0.29,-134.24 133.87 80
6 07/15/2012 06:47:28 -0.03,-135.40 -0.78,-138.82 389.70 80
7 07/16/2012 06:24:07 0.00,-135.40 0.32,-133.82 179.39 80
8 07/17/2012 18:45:38 0.04,-135.42 0.72,-138.37 336.39 80
9 07/18/2012 18:22:18
